Groton, CT

6:14 PM EDT on September 29, 2016 (GMT -0400)
Groton-New London

Weather History for KGON - November, 2011

Change the Weather History Date:

Monday, November 14, 2011

  Actual Average Record
Temperature  
Mean Temperature 56 °F -  
Max Temperature 60 °F 51 °F 67 °F (1993)
Min Temperature 53 °F 35 °F 18 °F (1986)
Degree Days  
Heating Degree Days 8    
Growing Degree Days 6 (Base 50)    
Moisture  
Dew Point 52 °F    
Average Humidity 83    
Maximum Humidity 96    
Minimum Humidity 75    
Precipitation  
Precipitation 0.00 in - - ()
Sea Level Pressure  
Sea Level Pressure 29.88 in    
Wind  
Wind Speed 13 mph (SSW)    
Max Wind Speed 20 mph    
Max Gust Speed 23 mph    
Visibility 10 miles    
Events      
Averages and records for this station are not official NWS values.
T = Trace of Precipitation, MM = Missing Value Source: NWS Daily Summary

Daily Weather History Graph

Daily Weather History Graph

Search for Another Location

Airport or City:

Trip Planner

Search our weather history database for the weather conditions in past years. The results will help you decide how hot, cold, wet, or windy it might be!

Date:

Astronomy

Nov. 14, 2011 Rise Set
Actual Time 6:34 AM EST 4:29 PM EST
Civil Twilight 6:05 AM EST 4:59 PM EST
Nautical Twilight 5:31 AM EST 5:32 PM EST
Astronomical Twilight 4:59 AM EST 6:05 PM EST
Moon 7:33 PM EST (11/14) 9:52 AM EST (11/14)
Length of Visible Light 10h 54m
Length of Day
9h 54m
Waning Gibbous, 87% of the Moon is Illuminated
Nov 14
Waning Gibbous
Nov 18
Last Quarter
Nov 25
New
Dec 2
First Quarter
Dec 10
Full

Hourly Weather History & Observations

Time (EST) Temp. Dew Point Humidity Pressure Visibility Wind Dir Wind Speed Gust Speed Precip Events Conditions
12:56 AM 57.9 °F 51.1 °F 78% 29.97 in 10.0 mi SW 16.1 mph 23.0 mph N/A   Overcast
1:56 AM 57.0 °F 51.1 °F 81% 29.96 in 10.0 mi SSW 16.1 mph - N/A   Scattered Clouds
2:56 AM 55.9 °F 51.1 °F 84% 29.94 in 10.0 mi SSW 19.6 mph - N/A   Clear
3:56 AM 55.9 °F 50.0 °F 80% 29.94 in 10.0 mi SW 17.3 mph - N/A   Clear
4:56 AM 55.9 °F 50.0 °F 80% 29.94 in 10.0 mi SW 18.4 mph - N/A   Clear
5:56 AM 55.9 °F 48.9 °F 77% 29.94 in 10.0 mi SW 16.1 mph - N/A   Clear
6:56 AM 55.4 °F 48.2 °F 77% 29.95 in 10.0 mi SW 13.8 mph - N/A   Clear
7:56 AM 57.0 °F 50.0 °F 77% 29.95 in 10.0 mi SW 16.1 mph - N/A   Clear
8:56 AM 57.0 °F 50.0 °F 77% 29.95 in 10.0 mi SW 10.4 mph - N/A   Clear
9:56 AM 57.9 °F 50.0 °F 75% 29.93 in 10.0 mi SW 9.2 mph - N/A   Clear
10:56 AM 59.0 °F 51.1 °F 75% 29.93 in 10.0 mi SW 9.2 mph - N/A   Mostly Cloudy
11:56 AM 57.9 °F 50.0 °F 75% 29.91 in 10.0 mi SSW 8.1 mph - N/A   Overcast
12:56 PM 60.1 °F 53.1 °F 78% 29.88 in 10.0 mi SSW 5.8 mph - N/A   Clear
1:56 PM 59.0 °F 53.1 °F 81% 29.86 in 10.0 mi SSW 9.2 mph - N/A   Overcast
2:56 PM 57.9 °F 53.1 °F 84% 29.85 in 10.0 mi SSW 10.4 mph - N/A   Mostly Cloudy
3:56 PM 57.0 °F 54.0 °F 89% 29.86 in 10.0 mi SSW 6.9 mph - N/A   Overcast
4:56 PM 57.0 °F 54.0 °F 89% 29.84 in 10.0 mi SSW 9.2 mph - N/A   Overcast
5:56 PM 55.0 °F 53.1 °F 93% 29.84 in 9.0 mi South 3.5 mph - N/A   Mostly Cloudy
6:56 PM 53.1 °F 52.0 °F 96% 29.83 in 7.0 mi South 4.6 mph - N/A   Clear
7:56 PM 55.0 °F 54.0 °F 96% 29.81 in 8.0 mi South 6.9 mph - N/A   Clear
8:56 PM 57.0 °F 54.0 °F 89% 29.81 in 9.0 mi SW 6.9 mph - N/A   Clear
9:56 PM 55.9 °F 54.0 °F 93% 29.79 in 8.0 mi South 3.5 mph - N/A   Clear
10:56 PM 59.0 °F 55.0 °F 87% 29.75 in 10.0 mi SW 16.1 mph 21.9 mph N/A   Clear
11:56 PM 59.0 °F 55.0 °F 87% 29.75 in 10.0 mi SW 16.1 mph 23.0 mph N/A   Clear